SKYSAT-C10

Last updated on Sun Sep 20 2026 00:02:44 GMT+0000 (Coordinated Universal Time)

1 42988U 17068B 26262.33481534 .00006936 00000+0 19941-3 0 9992 2 42988 97.4631 40.2791 0001354 87.4165 272.7233 15.36129779496803
UTC large
Height (km)
Speed (km/s)
/
Latitude / Longitude
Inclination (degrees)
Orbital Period (minutes)
Azimuth
Elevation
Range (km)
Doppler Factor

Next 0 passes for location: London (51.5072 / 0.1276)

No passes found over London.
SKYSAT-C10